AC2JK-WX Weather Reports


time (UTC)temp
F
wind
direction
speed
knots
gust
knots
rain 1hr
in
rain 24hr
in
rain mn
in
humidity
%
barometer
mb
20260504001709 53 245 5.2 7.8 0.00 0.00 0.00 54 1010.0
20260504001211 53 245 6.1 7.0 0.00 0.00 0.00 54 1010.0
20260504000710 53 245 4.3 5.2 0.00 0.00 0.00 55 1010.0
20260504000211 53 245 4.3 4.3 0.00 0.00 0.00 57 1010.0
20260503235709 52 245 3.5 4.3 0.00 0.00 0.00 57 1010.0
20260503235209 52 245 2.6 5.2 0.00 0.00 0.00 57 1010.0
20260503234709 52 245 3.5 4.3 0.00 0.00 0.00 58 1010.0
20260503234209 53 245 2.6 5.2 0.00 0.00 0.00 58 1010.0
20260503233709 53 245 2.6 7.0 0.00 0.00 0.00 57 1010.0
20260503233210 53 245 1.7 4.3 0.00 0.00 0.00 57 1010.0
20260503232710 53 245 4.3 5.2 0.00 0.00 0.00 57 1010.0
20260503232209 53 245 3.5 4.3 0.00 0.00 0.00 57 1010.0
20260503231711 53 245 2.6 6.1 0.00 0.00 0.00 57 1010.0
20260503231209 53 245 2.6 7.0 0.00 0.00 0.00 59 1010.0
20260503230709 53 245 2.6 6.1 0.00 0.00 0.00 60 1010.0
20260503230209 53 245 1.7 9.6 0.00 0.00 0.00 60 1010.0
20260503225709 53 245 4.3 7.0 0.00 0.00 0.00 60 1010.0
20260503225209 54 245 5.2 5.2 0.00 0.00 0.00 59 1010.0
20260503224710 54 245 2.6 6.1 0.00 0.00 0.00 57 1010.0
20260503224210 53 245 9.6 9.6 0.00 0.00 0.00 58 1010.0
20260503223710 53 245 4.3 5.2 0.00 0.00 0.00 58 1010.0
20260503223209 53 245 5.2 8.7 0.00 0.00 0.00 57 1010.0
20260503222709 53 245 2.6 7.0 0.00 0.00 0.00 58 1010.0
20260503222209 53 245 1.7 8.7 0.00 0.00 0.00 58 1010.0
20260503221710 53 245 3.5 10.4 0.00 0.00 0.00 59 1010.0
20260503221210 53 245 3.5 7.0 0.00 0.00 0.00 60 1011.0
20260503220709 53 245 5.2 7.8 0.00 0.00 0.00 59 1010.0
20260503220210 52 245 1.7 8.7 0.00 0.00 0.00 59 1010.0
20260503215709 52 245 4.3 8.7 0.00 0.00 0.00 59 1010.0
20260503215210 52 245 5.2 5.2 0.00 0.00 0.00 59 1010.0
20260503214709 52 245 5.2 5.2 0.00 0.00 0.00 59 1010.0
20260503214210 52 245 6.1 7.0 0.00 0.00 0.00 59 1010.0
20260503213709 53 245 5.2 7.0 0.00 0.00 0.00 58 1010.0
20260503213209 53 245 7.8 7.8 0.00 0.00 0.00 58 1010.0
20260503212709 53 245 4.3 7.0 0.00 0.00 0.00 58 1010.0
20260503212210 53 245 4.3 8.7 0.00 0.00 0.00 58 1010.0
20260503211711 53 245 6.1 7.0 0.00 0.00 0.00 57 1010.0
20260503211212 53 245 4.3 7.8 0.00 0.00 0.00 57 1010.0
20260503210709 53 245 1.7 8.7 0.00 0.00 0.00 57 1010.0
20260503210209 53 245 4.3 7.8 0.00 0.00 0.00 58 1010.0
20260503205709 52 245 7.8 10.4 0.00 0.00 0.00 58 1010.0
20260503205209 52 245 6.1 9.6 0.00 0.00 0.00 58 1010.0
20260503204709 52 245 3.5 10.4 0.00 0.00 0.00 58 1010.0
20260503204209 52 245 3.5 7.0 0.00 0.00 0.00 58 1010.0
20260503203710 52 245 3.5 11.3 0.00 0.00 0.00 58 1010.0
20260503203209 52 245 4.3 7.8 0.00 0.00 0.00 57 1010.0
20260503202709 53 245 5.2 6.1 0.00 0.00 0.00 58 1010.0
20260503202209 52 245 7.8 7.8 0.00 0.00 0.00 57 1011.0
20260503201709 53 245 9.6 9.6 0.00 0.00 0.00 56 1010.0
20260503201210 53 245 6.1 7.8 0.00 0.00 0.00 56 1011.0
20260503200709 53 245 6.1 6.1 0.00 0.00 0.00 56 1011.0
20260503200209 53 245 7.0 7.0 0.00 0.00 0.00 55 1011.0
20260503195709 54 245 5.2 7.8 0.00 0.00 0.00 54 1011.0
20260503195209 55 245 12.2 12.2 0.00 0.00 0.00 53 1011.0
20260503194709 55 245 4.3 9.6 0.00 0.00 0.00 53 1011.0
20260503194209 55 245 3.5 6.1 0.00 0.00 0.00 53 1011.0
20260503193709 55 245 2.6 11.3 0.00 0.00 0.00 53 1011.0
20260503193209 56 245 4.3 9.6 0.00 0.00 0.00 51 1011.0
20260503192710 55 245 7.0 10.4 0.00 0.00 0.00 52 1011.0
20260503192211 54 245 7.0 8.7 0.00 0.00 0.00 51 1011.0
20260503191710 55 245 3.5 5.2 0.00 0.00 0.00 51 1011.0
20260503191210 54 245 2.6 6.1 0.00 0.00 0.00 51 1011.0
20260503190709 54 245 10.4 10.4 0.00 0.00 0.00 50 1011.0
20260503190209 54 245 4.3 7.8 0.00 0.00 0.00 50 1011.0
20260503185709 54 245 7.0 10.4 0.00 0.00 0.00 49 1012.0
20260503185209 53 245 3.5 9.6 0.00 0.00 0.00 50 1012.0
20260503184709 53 245 4.3 7.0 0.00 0.00 0.00 50 1012.0
20260503184210 53 245 5.2 11.3 0.00 0.00 0.00 48 1012.0
20260503183709 55 245 2.6 9.6 0.00 0.00 0.00 46 1012.0
20260503183209 54 245 3.5 11.3 0.00 0.00 0.00 46 1012.0
20260503182709 54 245 3.5 13.0 0.00 0.00 0.00 45 1012.0
20260503182209 54 245 4.3 12.2 0.00 0.00 0.00 44 1012.0
20260503181709 54 245 5.2 7.8 0.00 0.00 0.00 43 1012.0
20260503181209 54 245 6.1 11.3 0.00 0.00 0.00 42 1012.0
20260503180709 54 245 3.5 3.5 0.00 0.00 0.00 42 1012.0
20260503180209 54 245 8.7 8.7 0.00 0.00 0.00 41 1012.0
20260503175709 55 245 5.2 8.7 0.00 0.00 0.00 42 1012.0
20260503175211 55 245 5.2 7.0 0.00 0.00 0.00 43 1012.0
20260503174709 54 245 3.5 4.3 0.00 0.00 0.00 46 1013.0
20260503174210 54 245 5.2 6.1 0.00 0.00 0.00 44 1013.0
20260503173709 54 245 8.7 8.7 0.00 0.00 0.00 48 1013.0
20260503173209 53 245 1.7 7.8 0.00 0.00 0.00 49 1013.0
20260503172709 52 245 2.6 6.1 0.00 0.00 0.00 53 1013.0
20260503172209 51 245 7.0 8.7 0.00 0.00 0.00 54 1013.0
20260503171709 51 245 3.5 9.6 0.00 0.00 0.00 58 1013.0
20260503171210 51 245 7.8 10.4 0.00 0.00 0.00 59 1013.0
20260503170710 51 245 3.5 3.5 0.00 0.00 0.00 61 1013.0
20260503170209 52 245 3.5 10.4 0.00 0.00 0.00 62 1013.0
20260503160209 51 245 3.5 9.6 0.00 0.00 0.00 58 1014.0
20260503150709 51 245 5.2 8.7 0.00 0.00 0.00 56 1014.0
20260503150209 51 245 2.6 7.0 0.00 0.00 0.00 54 1014.0
20260503140210 49 245 4.3 5.2 0.00 0.00 0.00 68 1014.0
20260503131209 46 245 5.2 11.3 0.00 0.00 0.00 73 1014.0
20260503130709 46 245 3.5 9.6 0.00 0.00 0.00 73 1014.0
20260503130210 46 245 4.3 5.2 0.00 0.00 0.00 75 1014.0
20260503120210 42 245 0.9 2.6 0.00 0.00 0.00 83 1014.0
20260503110709 36 245 0.0 0.0 0.00 0.00 0.00 86 1014.0
20260503110209 35 245 0.0 0.0 0.00 0.00 0.00 86 1014.0
20260503100209 33 245 0.0 0.0 0.00 0.00 0.00 85 1014.0
20260503090210 34 245 0.9 0.9 0.00 0.00 0.00 75 1015.0
20260503081209 35 245 0.0 0.0 0.00 0.00 0.00 76 1015.0
20260503080709 35 245 0.0 0.9 0.00 0.00 0.00 77 1015.0
20260503080209 35 245 0.0 0.0 0.00 0.00 0.00 78 1015.0
20260503072711 36 245 0.0 1.7 0.00 0.00 0.00 82 1015.0
20260503072210 36 245 0.9 1.7 0.00 0.00 0.00 83 1015.0
20260503071709 36 245 0.0 1.7 0.00 0.00 0.00 83 1015.0
20260503071210 36 245 0.0 1.7 0.00 0.00 0.00 84 1015.0
20260503070709 36 245 0.9 0.9 0.00 0.00 0.00 85 1015.0
20260503070209 36 245 0.0 0.0 0.00 0.00 0.00 85 1015.0
20260503060210 36 245 0.0 0.0 0.00 0.00 0.00 82 1015.0
20260503054709 36 245 0.0 0.0 0.00 0.00 0.00 80 1015.0
20260503054210 36 245 0.0 0.0 0.00 0.00 0.00 79 1015.0
20260503053709 36 245 0.0 0.0 0.00 0.00 0.00 78 1015.0
20260503053209 36 245 0.0 0.0 0.00 0.00 0.00 78 1015.0
20260503052709 36 245 0.0 0.0 0.00 0.00 0.00 77 1015.0
20260503052210 36 245 0.0 0.0 0.00 0.00 0.00 76 1015.0
20260503051709 37 245 0.0 0.0 0.00 0.00 0.00 74 1015.0
20260503051210 37 245 0.0 0.0 0.00 0.00 0.00 73 1015.0
20260503050709 37 245 0.0 0.0 0.00 0.00 0.00 73 1015.0
20260503050209 37 245 0.0 0.0 0.00 0.00 0.00 73 1015.0
20260503045709 37 245 0.0 0.0 0.00 0.00 0.00 73 1015.0
20260503045210 37 245 0.0 0.9 0.00 0.00 0.00 73 1015.0
20260503044709 37 245 0.0 0.9 0.00 0.00 0.00 73 1015.0
20260503044209 37 245 0.0 0.9 0.00 0.00 0.00 72 1015.0
20260503043709 38 245 0.0 0.0 0.00 0.00 0.00 72 1015.0
20260503043210 38 245 0.0 0.0 0.00 0.00 0.00 72 1015.0
20260503042709 38 245 0.0 0.0 0.00 0.00 0.00 72 1015.0
20260503042209 38 245 0.0 0.0 0.00 0.00 0.00 72 1015.0
20260503041710 38 245 0.0 0.9 0.00 0.00 0.00 71 1015.0
20260503041209 39 245 0.9 0.9 0.00 0.00 0.00 71 1016.0
20260503040709 39 245 0.9 0.9 0.00 0.00 0.00 71 1016.0
20260503040210 39 245 0.9 0.9 0.00 0.00 0.00 71 1016.0
20260503035709 40 245 0.0 0.9 0.00 0.00 0.00 70 1016.0
20260503035210 40 245 0.9 1.7 0.00 0.00 0.00 70 1016.0
20260503034709 40 245 0.0 0.9 0.00 0.00 0.00 70 1016.0
20260503034209 40 245 0.0 1.7 0.00 0.00 0.00 70 1016.0
20260503033710 40 245 0.9 2.6 0.00 0.00 0.00 71 1016.0
20260503033209 40 245 1.7 1.7 0.00 0.00 0.00 72 1016.0
20260503032709 41 245 0.0 0.0 0.00 0.00 0.00 72 1016.0
20260503032209 41 245 0.0 0.0 0.00 0.00 0.00 73 1016.0
20260503031710 41 245 0.0 0.0 0.00 0.00 0.00 73 1016.0
20260503031210 41 245 0.0 0.0 0.00 0.00 0.00 73 1016.0
20260503030709 41 245 0.9 0.9 0.00 0.00 0.00 73 1016.0
20260503030210 41 245 0.0 0.9 0.00 0.00 0.00 73 1016.0
20260503025709 41 245 0.0 0.0 0.00 0.00 0.00 73 1016.0
20260503025209 41 245 0.0 0.9 0.00 0.00 0.00 73 1016.0
20260503024709 41 245 0.9 0.9 0.00 0.00 0.00 73 1016.0
20260503024209 41 245 0.0 1.7 0.00 0.00 0.00 73 1016.0
20260503023710 41 245 0.0 0.9 0.00 0.00 0.00 72 1016.0
20260503023209 41 245 0.0 1.7 0.00 0.00 0.00 73 1016.0
20260503022709 41 245 0.0 0.0 0.00 0.00 0.00 73 1016.0
20260503022209 41 245 0.0 1.7 0.00 0.00 0.00 73 1016.0
20260503021709 41 245 0.9 0.9 0.00 0.00 0.00 73 1016.0
20260503021209 41 245 0.0 0.0 0.00 0.00 0.00 72 1016.0
20260503020709 41 245 0.9 0.9 0.00 0.00 0.00 72 1016.0
20260503020211 41 245 0.9 0.9 0.00 0.00 0.00 72 1016.0
20260503015710 42 245 0.0 0.9 0.00 0.00 0.00 72 1016.0
20260503015209 42 245 0.0 0.9 0.00 0.00 0.00 71 1016.0
20260503014709 42 245 1.7 1.7 0.00 0.00 0.00 71 1016.0
20260503014209 42 245 0.9 2.6 0.00 0.00 0.00 71 1016.0
20260503013709 42 245 0.0 1.7 0.00 0.00 0.00 71 1016.0
20260503013209 42 245 0.0 1.7 0.00 0.00 0.00 71 1016.0
20260503012709 42 245 0.9 3.5 0.00 0.00 0.00 71 1016.0
20260503012210 42 245 1.7 2.6 0.00 0.00 0.00 71 1016.0
20260503011709 42 245 1.7 2.6 0.00 0.00 0.00 71 1016.0
20260503011209 42 245 2.6 4.3 0.00 0.00 0.00 71 1016.0
20260503010709 42 245 0.9 2.6 0.00 0.00 0.00 71 1016.0
20260503010209 42 245 0.9 1.7 0.00 0.00 0.00 71 1016.0
20260503005709 42 245 0.0 3.5 0.00 0.00 0.00 70 1016.0
20260503005209 42 245 2.6 2.6 0.00 0.00 0.00 70 1016.0
20260503004709 42 245 1.7 3.5 0.00 0.00 0.00 70 1016.0
20260503004209 42 245 2.6 2.6 0.00 0.00 0.00 70 1016.0
20260503003711 42 245 0.9 0.9 0.00 0.00 0.00 69 1016.0
20260503003213 42 245 0.9 1.7 0.00 0.00 0.00 69 1016.0
20260503002710 42 245 0.9 1.7 0.00 0.00 0.00 69 1016.0
20260503002209 42 245 0.0 0.9 0.00 0.00 0.00 68 1016.0